Location: Deerlick Astronomy Village
(33.5614°N, 82.7631°W)
Time: 10:43:37
(UTC-04:00)

Iridium 66 - Visible Passes

Search period start: 27 April 2017 00:00
Search period end: 07 May 2017 00:00
Orbit: 776 x 779 km, 86.4° (Epoch: 25 April)

Date Brightness Start Highest point End Pass type
(mag) Time Alt. Az. Time Alt. Az. Time Alt. Az.
27 Apr 7.3 03:35:08 36° N 03:35:08 36° N 03:38:11 10° N visible
28 Apr 7.9 03:01:46 27° NE 03:01:46 27° NE 03:04:23 10° NNE visible
28 Apr 8.0 04:42:14 15° NW 04:42:14 15° NW 04:43:56 10° NW visible
29 Apr 8.5 02:28:23 16° NE 02:28:23 16° NE 02:30:03 10° NE visible
29 Apr 7.6 04:08:52 25° NW 04:08:52 25° NW 04:11:24 10° NNW visible
30 Apr 7.4 03:35:29 32° NNW 03:35:29 32° NNW 03:38:15 10° N visible
01 May 7.7 03:02:06 29° NNE 03:02:06 29° NNE 03:04:42 10° N visible
01 May 8.3 04:42:34 10° NW 04:42:34 10° NW 04:42:38 10° NW visible
02 May 8.3 02:28:42 21° NE 02:28:42 21° NE 02:30:43 10° NNE visible
02 May 7.9 04:09:10 18° NW 04:09:10 18° NW 04:11:01 10° NNW visible
03 May 8.7 01:55:17 12° NE 01:55:17 12° NE 01:56:01 10° NE visible
03 May 7.7 03:35:46 26° NNW 03:35:46 26° NNW 03:38:11 10° NNW visible
04 May 7.7 03:02:21 29° N 03:02:21 29° N 03:04:52 10° N visible
05 May 8.0 02:28:56 24° NNE 02:28:56 24° NNE 02:31:09 10° NNE visible
05 May 8.3 04:09:23 12° NW 04:09:23 12° NW 04:10:15 10° NW visible
06 May 8.5 01:55:29 16° NE 01:55:29 16° NE 01:56:57 10° NNE visible
06 May 7.9 03:35:58 20° NW 03:35:58 20° NW 03:37:56 10° NNW visible
